Flag for Turkey Weather past 2 weeks in Mersin, Turkey

Now
88 °F

Scattered clouds.


Feels Like: 93 °F
Forecast: 73 / 89 °F
Wind: 8 mph from Southwest

Location: Adana / Sakirpasa

Current Time: Jul 31, 2015 at 6:46:13 PM

Latest Report: Jul 31, 2015 at 5:50 PM


Visibility: N/A

Pressure: 29.68 "Hg

Humidity: 55%

Dew point: 70 °F

Location of MersinLocation

Historic Weather in Mersin — Graph

°F

Mersin temperature yesterday

Maximum temperature yesterday: 91 °F (at 11:20 AM)
Minimum temperature yesterday: 79 °F (at 5:20 AM)
Average temperature yesterday: 85 °F

Past Weeks' High & Low Weather Summary

 TemperatureHumidityPressure
High95 °F (Jul 19, 1:20 PM)94% (Jul 17, 3:20 AM)29.80 "Hg (Jul 17, 3:20 AM)
Low68 °F (Jul 25, 4:50 AM)26% (Jul 25, 11:50 AM)29.59 "Hg (Jul 20, 4:50 PM)
Average84 °F69%29.68 "Hg
* Reported Jul 16 5:20 PM — Jul 31 5:50 PM, Mersin, Weather by CustomWeather, © 2015

Note: Actual official high and low records may vary slightly from our data, if they occured in-between our weather recording intervals... More about our weather records

Advertising

Mersin weather history for previous 24 hours

 ConditionsComfort  
Time TempWeatherWind HumidityBarometerVisibility
5:50 PM
Fri, Jul 31
88 °FScattered clouds.8 mph55%29.68 "HgN/A
5:20 PM88 °FBroken clouds.10 mph59%29.68 "HgN/A
4:50 PM90 °FScattered clouds.13 mph55%29.68 "HgN/A
4:20 PM90 °FScattered clouds.15 mph59%29.68 "HgN/A
3:50 PM90 °FScattered clouds.14 mph59%29.68 "HgN/A
3:20 PM91 °FScattered clouds.12 mph49%29.68 "HgN/A
2:50 PM90 °FScattered clouds.12 mph55%29.68 "HgN/A
2:20 PM91 °FScattered clouds.14 mph52%29.68 "HgN/A
1:50 PM91 °FScattered clouds.13 mph52%29.68 "HgN/A
1:20 PM90 °FScattered clouds.12 mph55%29.68 "HgN/A
12:50 PM91 °FScattered clouds.12 mph52%29.68 "HgN/A
12:20 PM88 °FScattered clouds.12 mph62%29.68 "HgN/A
11:50 AM90 °FScattered clouds.10 mph59%29.68 "HgN/A
11:20 AM90 °FScattered clouds.8 mph55%29.68 "HgN/A
10:20 AM88 °FScattered clouds.6 mph62%29.68 "HgN/A
9:50 AM86 °FScattered clouds.5 mph62%29.68 "HgN/A
9:20 AM86 °FScattered clouds.6 mph66%29.68 "HgN/A
8:50 AM84 °FScattered clouds.6 mph70%29.68 "HgN/A
8:20 AM82 °FScattered clouds.6 mph79%29.68 "HgN/A
7:50 AM82 °FScattered clouds.3 mph79%29.68 "HgN/A
7:20 AM81 °FScattered clouds.1 mph84%29.68 "HgN/A
6:50 AM79 °FScattered clouds.2 mph89%29.68 "HgN/A
6:20 AM79 °FPassing clouds.3 mph89%29.65 "HgN/A
5:50 AM79 °FPartly cloudy.3 mph89%29.65 "HgN/A
5:20 AM79 °FPartly cloudy.No wind89%29.65 "HgN/A
4:50 AM79 °FPartly cloudy.3 mph89%29.65 "HgN/A
4:20 AM79 °FPartly cloudy.3 mph89%29.65 "HgN/A
3:50 AM79 °FPartly cloudy.3 mph89%29.65 "HgN/A
3:20 AM79 °FPartly cloudy.5 mph89%29.65 "HgN/A
2:50 AM79 °FPassing clouds.5 mph89%29.65 "HgN/A
2:20 AM79 °FPassing clouds.5 mph89%29.65 "HgN/A
1:50 AM79 °FPassing clouds.5 mph89%29.65 "HgN/A
1:20 AM79 °FPassing clouds.5 mph89%29.65 "HgN/A
12:50 AM81 °FPassing clouds.3 mph84%29.68 "HgN/A
12:20 AM81 °FPassing clouds.3 mph84%29.68 "HgN/A
11:50 PM
Thu, Jul 30
81 °FPassing clouds.3 mph84%29.68 "HgN/A
11:20 PM81 °FPassing clouds.3 mph89%29.68 "HgN/A
10:50 PM81 °FPassing clouds.3 mph89%29.68 "HgN/A
10:20 PM82 °FPassing clouds.5 mph84%29.68 "HgN/A
9:50 PM82 °FPassing clouds.3 mph84%29.68 "HgN/A
9:20 PM82 °FPartly cloudy.5 mph84%29.68 "HgN/A
8:50 PM82 °FPartly cloudy.5 mph84%29.68 "HgN/A
8:20 PM84 °FBroken clouds.6 mph79%29.65 "HgN/A
7:50 PM84 °FBroken clouds.6 mph74%29.65 "HgN/A
7:20 PM84 °FBroken clouds.7 mph74%29.65 "HgN/A
6:50 PM84 °FScattered clouds.9 mph74%29.65 "HgN/A
6:20 PM86 °FScattered clouds.10 mph70%29.62 "HgN/A
Weather by CustomWeather, © 2015

See weather overviewHow to use our weather pages